Stündliche Wetter Abu

Heute, 25 Juni, Freitag

Zeit Temperatur Niederschläge Wind Luftdruck Luftfeuchtigkeit
00:00 +28°C° 0 mm 3 m/S 687 mmHg 64%
01:00 +27°C° 0 mm 3 m/S 686 mmHg 69%
02:00 +26°C° 0 mm 3 m/S 686 mmHg 74%
03:00 +26°C° 0 mm 4 m/S 686 mmHg 76%
04:00 +26°C° 0 mm 4 m/S 686 mmHg 78%
05:00 +25°C° 0 mm 4 m/S 686 mmHg 80%
06:00 +26°C° 0 mm 4 m/S 686 mmHg 75%
07:00 +27°C° 0 mm 5 m/S 687 mmHg 71%
08:00 +27°C° 0 mm 5 m/S 687 mmHg 67%
09:00 +29°C° 0 mm 5 m/S 687 mmHg 59%
10:00 +30°C° 0 mm 5 m/S 687 mmHg 52%
11:00 +33°C° 0 mm 5 m/S 687 mmHg 45%
12:00 +33°C° 0 mm 5 m/S 687 mmHg 42%
13:00 +34°C° 0 mm 5 m/S 687 mmHg 39%
14:00 +35°C° 0 mm 5 m/S 686 mmHg 36%
15:00 +35°C° 0 mm 5 m/S 686 mmHg 36%
16:00 +35°C° 0 mm 5 m/S 686 mmHg 36%
17:00 +34°C° 0 mm 6 m/S 685 mmHg 35%
18:00 +33°C° 0 mm 5 m/S 686 mmHg 41%
19:00 +32°C° 0 mm 5 m/S 686 mmHg 46%
20:00 +30°C° 0 mm 4 m/S 686 mmHg 51%
21:00 +29°C° 0 mm 4 m/S 686 mmHg 54%
22:00 +29°C° 0 mm 4 m/S 686 mmHg 56%
23:00 +28°C° 0 mm 4 m/S 686 mmHg 58%

Morgen, 26 Juni, Samstag

Zeit Temperatur Niederschläge Wind Luftdruck Luftfeuchtigkeit
00:00 +28°C° 0 mm 4 m/S 686 mmHg 62%
01:00 +27°C° 0 mm 4 m/S 686 mmHg 66%
02:00 +26°C° 0 mm 4 m/S 685 mmHg 70%
03:00 +26°C° 0 mm 4 m/S 685 mmHg 71%
04:00 +25°C° 0 mm 4 m/S 686 mmHg 73%
05:00 +25°C° 0 mm 4 m/S 686 mmHg 75%
06:00 +25°C° 0 mm 5 m/S 686 mmHg 71%
07:00 +26°C° 0 mm 5 m/S 686 mmHg 68%
08:00 +26°C° 0 mm 5 m/S 687 mmHg 64%
09:00 +28°C° 0 mm 5 m/S 687 mmHg 58%
10:00 +29°C° 0 mm 5 m/S 687 mmHg 51%
11:00 +32°C° 0 mm 5 m/S 687 mmHg 44%
12:00 +33°C° 0 mm 5 m/S 687 mmHg 42%
13:00 +33°C° 0 mm 5 m/S 687 mmHg 39%
14:00 +34°C° 0 mm 5 m/S 687 mmHg 37%
15:00 +34°C° 0 mm 5 m/S 686 mmHg 36%
16:00 +34°C° 0 mm 5 m/S 686 mmHg 36%
17:00 +34°C° 0 mm 5 m/S 686 mmHg 35%
18:00 +33°C° 0 mm 5 m/S 686 mmHg 39%
19:00 +32°C° 0 mm 4 m/S 686 mmHg 43%
20:00 +30°C° 0 mm 4 m/S 687 mmHg 46%
21:00 +30°C° 0 mm 4 m/S 687 mmHg 50%
22:00 +29°C° 0 mm 4 m/S 687 mmHg 54%
23:00 +28°C° 0 mm 4 m/S 687 mmHg 58%

übermorgen, 27 Juni, Sonntag

Zeit Temperatur Niederschläge Wind Luftdruck Luftfeuchtigkeit
00:00 +28°C° 0 mm 4 m/S 687 mmHg 62%
01:00 +27°C° 0 mm 4 m/S 687 mmHg 66%
02:00 +27°C° 0 mm 4 m/S 687 mmHg 70%
03:00 +26°C° 0 mm 4 m/S 687 mmHg 73%
04:00 +26°C° 0 mm 4 m/S 687 mmHg 75%
05:00 +25°C° 0 mm 4 m/S 687 mmHg 77%
06:00 +26°C° 0 mm 4 m/S 688 mmHg 74%
07:00 +26°C° 0 mm 4 m/S 688 mmHg 70%
08:00 +27°C° 0 mm 5 m/S 689 mmHg 66%
09:00 +28°C° 0 mm 5 m/S 689 mmHg 58%
10:00 +30°C° 0 mm 5 m/S 689 mmHg 51%
11:00 +33°C° 0 mm 5 m/S 690 mmHg 43%
12:00 +34°C° 0 mm 5 m/S 689 mmHg 39%
13:00 +35°C° 0 mm 5 m/S 689 mmHg 36%
14:00 +36°C° 0 mm 5 m/S 689 mmHg 33%
15:00 +35°C° 0 mm 5 m/S 688 mmHg 33%
16:00 +35°C° 0 mm 5 m/S 688 mmHg 33%
17:00 +35°C° 0 mm 5 m/S 688 mmHg 32%
18:00 +34°C° 0 mm 5 m/S 688 mmHg 36%
19:00 +32°C° 0 mm 4 m/S 688 mmHg 40%
20:00 +30°C° 0 mm 4 m/S 689 mmHg 44%
21:00 +30°C° 0 mm 4 m/S 688 mmHg 47%
22:00 +29°C° 0 mm 3 m/S 688 mmHg 51%
23:00 +29°C° 0 mm 3 m/S 688 mmHg 54%

28 Juni, Montag

Zeit Temperatur Niederschläge Wind Luftdruck Luftfeuchtigkeit
00:00 +28°C° 0 mm 3 m/S 688 mmHg 59%
01:00 +27°C° 0 mm 4 m/S 688 mmHg 64%
02:00 +27°C° 0 mm 4 m/S 687 mmHg 69%
03:00 +26°C° 0 mm 4 m/S 687 mmHg 72%
04:00 +26°C° 0 mm 4 m/S 687 mmHg 74%
05:00 +25°C° 0 mm 4 m/S 687 mmHg 76%
06:00 +26°C° 0 mm 5 m/S 688 mmHg 72%
07:00 +26°C° 0 mm 5 m/S 688 mmHg 68%
08:00 +27°C° 0 mm 5 m/S 688 mmHg 64%
09:00 +29°C° 0 mm 5 m/S 689 mmHg 56%
10:00 +30°C° 0 mm 5 m/S 689 mmHg 49%
11:00 +33°C° 0 mm 5 m/S 689 mmHg 41%
12:00 +34°C° 0 mm 5 m/S 688 mmHg 39%
13:00 +35°C° 0 mm 5 m/S 688 mmHg 36%
14:00 +35°C° 0 mm 5 m/S 688 mmHg 34%
15:00 +35°C° 0 mm 5 m/S 688 mmHg 34%
16:00 +35°C° 0 mm 5 m/S 687 mmHg 34%
17:00 +35°C° 0 mm 5 m/S 687 mmHg 35%
18:00 +34°C° 0 mm 5 m/S 687 mmHg 39%
19:00 +33°C° 0 mm 4 m/S 687 mmHg 42%
20:00 +30°C° 0 mm 4 m/S 687 mmHg 46%
21:00 +30°C° 0 mm 4 m/S 688 mmHg 49%
22:00 +29°C° 0 mm 3 m/S 688 mmHg 52%
23:00 +29°C° 0 mm 3 m/S 688 mmHg 55%

29 Juni, Dienstag

Zeit Temperatur Niederschläge Wind Luftdruck Luftfeuchtigkeit
00:00 +28°C° 0 mm 3 m/S 687 mmHg 59%
01:00 +27°C° 0 mm 4 m/S 687 mmHg 63%
02:00 +27°C° 0 mm 4 m/S 686 mmHg 68%
03:00 +26°C° 0 mm 4 m/S 686 mmHg 70%
04:00 +26°C° 0 mm 4 m/S 686 mmHg 73%
05:00 +25°C° 0 mm 5 m/S 686 mmHg 76%
06:00 +26°C° 0 mm 5 m/S 687 mmHg 72%
07:00 +26°C° 0 mm 5 m/S 687 mmHg 68%
08:00 +27°C° 0 mm 5 m/S 688 mmHg 64%
09:00 +28°C° 0 mm 6 m/S 688 mmHg 56%
10:00 +30°C° 0 mm 6 m/S 688 mmHg 49%
11:00 +33°C° 0 mm 6 m/S 688 mmHg 41%
12:00 +34°C° 0 mm 6 m/S 688 mmHg 38%
13:00 +35°C° 0 mm 6 m/S 687 mmHg 34%
14:00 +36°C° 0 mm 6 m/S 687 mmHg 31%
15:00 +36°C° 0 mm 6 m/S 687 mmHg 31%
16:00 +36°C° 0 mm 6 m/S 687 mmHg 31%
17:00 +36°C° 0 mm 7 m/S 686 mmHg 31%
18:00 +34°C° 0 mm 6 m/S 686 mmHg 36%
19:00 +33°C° 0 mm 5 m/S 687 mmHg 40%
20:00 +32°C° 0 mm 5 m/S 687 mmHg 44%
21:00 +30°C° 0 mm 5 m/S 687 mmHg 48%
22:00 +29°C° 0 mm 4 m/S 687 mmHg 53%
23:00 +28°C° 0 mm 4 m/S 687 mmHg 57%

30 Juni, Mittwoch

Zeit Temperatur Niederschläge Wind Luftdruck Luftfeuchtigkeit
00:00 +28°C° 0 mm 4 m/S 686 mmHg 61%
01:00 +27°C° 0 mm 5 m/S 686 mmHg 65%
02:00 +26°C° 0 mm 5 m/S 685 mmHg 69%
03:00 +26°C° 0 mm 5 m/S 686 mmHg 71%
04:00 +25°C° 0 mm 5 m/S 686 mmHg 74%
05:00 +23°C° 0 mm 5 m/S 686 mmHg 76%
06:00 +24°C° 0 mm 6 m/S 686 mmHg 72%
07:00 +26°C° 0 mm 6 m/S 687 mmHg 67%
08:00 +27°C° 0 mm 7 m/S 687 mmHg 62%
09:00 +28°C° 0 mm 7 m/S 687 mmHg 55%
10:00 +30°C° 0 mm 7 m/S 687 mmHg 48%
11:00 +33°C° 0 mm 8 m/S 687 mmHg 40%
12:00 +34°C° 0 mm 8 m/S 687 mmHg 37%
13:00 +35°C° 0 mm 8 m/S 686 mmHg 35%
14:00 +37°C° 0 mm 8 m/S 686 mmHg 32%
15:00 +37°C° 0 mm 8 m/S 686 mmHg 33%
16:00 +35°C° 0 mm 8 m/S 685 mmHg 34%
17:00 +35°C° 0 mm 8 m/S 685 mmHg 35%
18:00 +34°C° 0 mm 8 m/S 685 mmHg 40%
19:00 +32°C° 0 mm 7 m/S 685 mmHg 44%
20:00 +30°C° 0 mm 6 m/S 685 mmHg 49%
21:00 +30°C° 0 mm 6 m/S 685 mmHg 52%
22:00 +29°C° 0 mm 6 m/S 685 mmHg 56%
23:00 +28°C° 0 mm 6 m/S 685 mmHg 59%
Mehr zeigen

Wir brauchen deine Erlaubnis

Meteoprog und unser Service Anbieter werden persönliche Daten aufbewahren, so wie Cookies, Geräte Bezeichnung oder ähnliche Technologien von deinem Gerät und Prozess, so wie Persönliche Daten Inhalte und Werbungen, genauso wie social Media und den Verkehr zu analysieren.

  • Aufbewahrung und/oder Zugang zu deiner Geräte Informationen.

    Cookies, Geräte Bezeichnung oder andere Informationen, können aufbewahrt oder Zugang zu deinem Gerät erhalten, für den Grund, der oben angegeben wird.

  • Personalisierte Werbung und Inhalte, Messungen, Einblick in das Publikum und Produkt Entwicklung.

    Werbungen und Inhalte können personalisiert werden, basierend auf ein Profil. Mehr Daten können besser personalisierte Werbungen und Inhalte hinzufügen. Werbung und Inhalte können gezeigt und gemessen werden. Einblicke über das Publikum, welche die Werbung gesehen haben und den Inhalt, können abgeleitet werden. So wie Daten können genutzt werden, um es zu verbessern oder die Benutzer Erfahrung zu verbessern das System und die Software.

Wenn du “Ich stimme zu” klickst, erlaubst du uns, die Cookies zu benutzen die Geräte Bezeichnung, den Web oder ähnliche Technologien zu benutzen. Deine Settings, können in deinem Gerät bei deinem Browser geändert werden.

Für den bestimmten Zweck, berechtigten Interessen beruhen darauf, mehr als auf den Inhalt. Du kannst mehr darüber in unseren Privaten und Cookie Politik lesen.